Flag for Germany Weather past 2 weeks in Titisee-Neustadt, Baden-Württemberg, Germany

Now
64 °F

Passing clouds.


Feels Like: 64 °F
Forecast: 32 / 64 °F
Wind: 5 mph from Northeast

Location: Freiburg

Current Time: Aug 20, 2014 at 5:16:23 PM

Latest Report: Aug 20, 2014 at 4:00 PM


Visibility: 6 mi

Pressure: 30.01 "Hg

Humidity: 60%

Dew point: 50 °F

Location of Titisee-NeustadtLocation

Historic Weather in Titisee-Neustadt — Graph

°F

Titisee-Neustadt temperature yesterday

Maximum temperature yesterday: 71 °F (at 4:00 PM)
Minimum temperature yesterday: 56 °F (at 3:00 AM)
Average temperature yesterday: 63 °F

Past Weeks' High & Low Weather Summary

 TemperatureHumidityPressure
High84 °F (Aug 10, 6:00 PM)97% (Aug 8, 7:00 AM)30.19 "Hg (Aug 8, 7:00 AM)
Low47 °F (Aug 17, 7:00 AM)39% (Aug 19, 6:00 PM)29.68 "Hg (Aug 13, 3:00 PM)
Average64 °F73%29.96 "Hg
* Reported Aug 5 4:00 PM — Aug 20 4:00 PM, Titisee-Neustadt, Weather by CustomWeather, © 2014

Note: Actual official high and low records may vary slightly from our data, if they occured in-between our weather recording intervals... More about our weather records

Advertising

Titisee-Neustadt weather history for previous 24 hours

 ConditionsComfort  
Time TempWeatherWind HumidityBarometerVisibility
4:00 PM
Aug 20
64 °FPartly sunny.7 mph60%30.01 "Hg28 mi
3:00 PM65 °FOvercast.3 mph48%30.01 "Hg31 mi
1:00 PM66 °FScattered clouds.2 mph51%30.02 "Hg34 mi
12:00 PM64 °FScattered clouds.2 mph55%30.03 "Hg28 mi
10:00 AM61 °FOvercast.2 mph71%30.04 "Hg34 mi
9:00 AM58 °FScattered clouds.1 mph71%30.04 "Hg31 mi
7:00 AM51 °FOvercast.1 mph93%30.05 "Hg31 mi
6:00 AM48 °FPassing clouds.1 mph93%30.06 "Hg37 mi
4:00 AM51 °FPassing clouds.1 mph92%30.05 "Hg31 mi
3:00 AM53 °FOvercast.1 mph86%30.04 "Hg43 mi
1:00 AM57 °FOvercast.1 mph81%30.04 "Hg43 mi
12:00 AM56 °FOvercast.1 mph81%30.03 "Hg43 mi
10:00 PM
Aug 19
60 °FOvercast.1 mph69%29.99 "Hg43 mi
9:00 PM64 °FOvercast.1 mph54%29.96 "Hg22 mi
7:00 PM70 °FPassing clouds.2 mph42%29.93 "Hg43 mi
6:00 PM70 °FSunny.6 mph39%29.92 "Hg28 mi
Weather by CustomWeather, © 2014

See weather overviewHow to use our weather pages